EW9290 Weather Reports


Display with metric or nautical units.
time (UTC)temp
F
wind
direction
speed
MPH
gust
MPH
rain 1hr
in
rain 24hr
in
rain mn
in
humidity
%
barometer
mb
20260903135740 79 191 2.0 2.0 0.00 0.10 0.10 86 1013.6
20260903135235 79 217 1.0 1.0 0.00 0.10 0.10 87 1013.6
20260903134733 78 230 1.0 1.0 0.00 0.10 0.10 88 1013.6
20260903134230 78 220 0.0 1.0 0.00 0.10 0.10 89 1013.7
20260903133727 77 170 3.0 3.0 0.00 0.10 0.10 89 1013.7
20260903133224 77 189 0.0 1.0 0.00 0.10 0.10 91 1013.8
20260903132724 77 174 2.0 3.0 0.00 0.10 0.10 90 1013.7
20260903132224 77 188 0.0 1.0 0.00 0.10 0.10 90 1013.7
20260903131718 77 173 0.0 0.0 0.00 0.10 0.10 90 1013.9
20260903131213 75 173 0.0 1.0 0.00 0.10 0.10 91 1013.7
20260903130708 75 173 0.0 0.0 0.00 0.10 0.10 93 1013.9
20260903130202 73 173 0.0 0.0 0.00 0.10 0.10 96 1013.9
20260903125701 73 194 3.0 3.0 0.00 0.10 0.10 98 1014.3
20260903125156 72 179 0.0 0.0 0.00 0.10 0.10 99 1014.2
20260903124655 71 209 1.0 1.0 0.00 0.10 0.10 99 1013.9
20260903124156 71 200 1.0 1.0 0.00 0.10 0.10 99 1014.0
20260903123655 71 191 5.0 6.0 0.00 0.10 0.10 99 1014.0
20260903123154 71 180 1.0 2.0 0.00 0.10 0.10 99 1013.8
20260903122654 70 179 3.0 3.0 0.00 0.10 0.10 99 1014.0
20260903122148 70 140 0.0 0.0 0.00 0.10 0.10 99 1013.9
20260903121647 69 143 0.0 0.0 0.00 0.10 0.10 99 1014.1
20260903121143 69 153 0.0 0.0 0.00 0.10 0.10 99 1014.1
20260903120642 69 116 1.0 1.0 0.00 0.10 0.10 99 1013.9
20260903120137 69 130 0.0 0.0 0.00 0.10 0.10 99 1014.1
20260903115635 69 109 0.0 0.0 0.00 0.10 0.10 99 1013.7
20260903115131 69 122 0.0 0.0 0.00 0.10 0.10 99 1013.8
20260903114626 69 120 0.0 0.0 0.00 0.10 0.10 99 1013.8
20260903114121 69 69 0.0 0.0 0.00 0.10 0.10 99 1014.0
20260903113616 69 118 0.0 0.0 0.00 0.10 0.10 99 1014.1
20260903113113 70 196 0.0 1.0 0.00 0.10 0.10 99 1013.9
20260903112609 70 130 0.0 0.0 0.05 0.10 0.10 99 1013.9
20260903112108 70 107 0.0 0.0 0.17 0.10 0.10 99 1014.0
20260903111607 70 231 0.0 0.0 0.12 0.09 0.09 99 1014.4
20260903111103 70 177 0.0 0.0 0.12 0.07 0.07 98 1014.2
20260903110559 71 130 0.0 0.0 0.24 0.07 0.07 97 1014.0
20260903110054 71 140 0.0 0.0 0.31 0.05 0.05 96 1013.8
20260903105549 73 122 0.0 1.0 0.24 0.04 0.04 93 1013.8
20260903105044 73 112 0.0 0.0 0.00 0.00 0.00 88 1013.9
20260903104543 74 81 0.0 1.0 0.00 0.00 0.00 88 1013.7
20260903104039 74 38 1.0 2.0 0.00 0.00 0.00 87 1013.9
20260903103535 75 62 0.0 1.0 0.00 0.00 0.00 87 1013.5
20260903103031 75 31 1.0 1.0 0.00 0.00 0.00 88 1013.7
20260903102526 75 28 2.0 2.0 0.00 0.00 0.00 89 1013.8
20260903102025 74 62 1.0 2.0 0.00 0.00 0.00 92 1013.5
20260903101520 73 31 3.0 5.0 0.00 0.00 0.00 93 1013.3
20260903101016 73 121 0.0 0.0 0.00 0.00 0.00 93 1013.0
20260903100511 73 121 0.0 0.0 0.00 0.00 0.00 93 1013.0
20260903100009 73 135 0.0 0.0 0.00 0.00 0.00 93 1013.2
20260903095502 72 135 0.0 0.0 0.00 0.00 0.00 93 1012.9
20260903094957 72 136 0.0 0.0 0.00 0.00 0.00 93 1013.1
20260903094456 72 135 0.0 0.0 0.00 0.00 0.00 93 1013.0
20260903093953 72 135 0.0 0.0 0.00 0.00 0.00 93 1013.0
20260903093448 72 135 0.0 0.0 0.00 0.00 0.00 94 1013.0
20260903092943 72 136 0.0 0.0 0.00 0.00 0.00 93 1013.0
20260903092443 72 152 0.0 0.0 0.00 0.00 0.00 93 1012.7
20260903091942 72 153 0.0 0.0 0.00 0.00 0.00 93 1012.8
20260903091440 72 154 0.0 0.0 0.00 0.00 0.00 92 1012.7
20260903090936 72 152 1.0 1.0 0.00 0.00 0.00 92 1013.1
20260903090431 72 166 0.0 0.0 0.00 0.00 0.00 92 1013.1
20260903085930 72 165 0.0 0.0 0.00 0.00 0.00 91 1012.9
20260903085428 72 165 0.0 0.0 0.00 0.00 0.00 91 1012.9
20260903084928 72 163 0.0 0.0 0.00 0.00 0.00 91 1012.7
20260903084427 72 162 0.0 0.0 0.00 0.00 0.00 91 1012.7
20260903083922 72 158 0.0 0.0 0.00 0.00 0.00 90 1012.7
20260903083418 72 156 0.0 0.0 0.00 0.00 0.00 90 1012.8
20260903082917 72 156 0.0 0.0 0.00 0.00 0.00 90 1012.5
20260903082412 71 185 0.0 0.0 0.00 0.00 0.00 90 1012.4
20260903081907 72 251 0.0 0.0 0.00 0.00 0.00 92 1012.7
20260903081402 71 251 0.0 0.0 0.00 0.00 0.00 91 1012.7
20260903080859 71 251 0.0 0.0 0.00 0.00 0.00 92 1012.9
20260903080355 71 251 0.0 0.0 0.00 0.00 0.00 93 1012.9
20260903075855 71 251 0.0 0.0 0.00 0.00 0.00 93 1012.8
20260903075351 72 251 0.0 0.0 0.00 0.00 0.00 92 1013.0
20260903074850 72 251 0.0 0.0 0.00 0.00 0.00 90 1013.2
20260903074345 73 251 0.0 0.0 0.00 0.00 0.00 90 1013.2
20260903073841 73 251 0.0 0.0 0.00 0.00 0.00 89 1013.1
20260903073335 73 252 0.0 0.0 0.00 0.00 0.00 87 1013.1
20260903072831 74 252 0.0 0.0 0.00 0.00 0.00 86 1013.0
20260903072327 74 252 0.0 0.0 0.00 0.00 0.00 84 1012.9
20260903071824 74 261 0.0 0.0 0.00 0.00 0.00 85 1012.8
20260903071320 74 260 0.0 0.0 0.00 0.00 0.00 83 1013.0
20260903070814 75 261 0.0 0.0 0.00 0.00 0.00 84 1013.1
20260903070310 75 270 0.0 0.0 0.00 0.00 0.00 84 1012.8
20260903065805 76 311 0.0 0.0 0.00 0.00 0.00 83 1013.1
20260903065306 76 25 0.0 0.0 0.00 0.00 0.00 82 1013.4
20260903064803 77 15 0.0 0.0 0.00 0.00 0.00 81 1013.3
20260903064259 77 25 2.0 3.0 0.00 0.00 0.00 79 1013.2
20260903063755 77 16 1.0 1.0 0.00 0.00 0.00 80 1013.4
20260903063249 77 1 0.0 0.0 0.00 0.00 0.00 80 1013.6
20260903062746 78 14 3.0 3.0 0.00 0.00 0.00 79 1013.6
20260903062244 78 4 1.0 1.0 0.00 0.00 0.00 81 1013.7
20260903061741 78 28 0.0 0.0 0.00 0.00 0.00 81 1013.6
20260903061240 78 5 5.0 7.0 0.00 0.00 0.00 81 1013.6
20260903060736 79 351 5.0 7.0 0.00 0.00 0.00 83 1013.9
20260903060235 79 15 3.0 6.0 0.00 0.00 0.00 84 1013.8
20260903055733 79 7 2.0 3.0 0.00 0.00 0.00 85 1013.9
20260903055232 79 351 8.0 9.0 0.00 0.00 0.00 85 1013.7
20260903054727 79 229 0.0 0.0 0.00 0.00 0.00 86 1013.0
20260903054222 79 229 0.0 0.0 0.00 0.00 0.00 85 1013.0
20260903053719 79 229 0.0 0.0 0.00 0.00 0.00 85 1013.0
20260903053213 79 236 0.0 0.0 0.00 0.00 0.00 84 1013.0
20260903052709 80 236 0.0 0.0 0.00 0.00 0.00 83 1012.7
20260903052204 80 244 0.0 0.0 0.00 0.00 0.00 83 1012.7
20260903051659 80 240 0.0 0.0 0.00 0.00 0.00 83 1012.7
20260903051154 80 255 0.0 0.0 0.00 0.00 0.00 83 1012.5
20260903050650 80 279 0.0 0.0 0.00 0.00 0.00 82 1012.4
20260903050148 80 201 0.0 1.0 0.00 0.00 0.00 82 1012.4
20260903045644 80 255 0.0 0.0 0.00 0.00 0.00 82 1012.3
20260903045140 80 246 1.0 1.0 0.00 0.00 0.00 82 1012.3
20260903044636 80 193 1.0 1.0 0.00 0.00 0.00 81 1012.3
20260903044131 80 248 1.0 2.0 0.00 0.00 0.00 81 1012.2
20260903043628 80 231 2.0 2.0 0.00 0.00 0.00 81 1012.2
20260903043127 80 220 0.0 0.0 0.00 0.00 0.00 81 1012.3
20260903042626 80 266 3.0 6.0 0.00 0.00 0.00 81 1012.1
20260903042122 81 229 1.0 1.0 0.00 0.00 0.00 80 1012.2
20260903041618 81 242 1.0 2.0 0.00 0.00 0.00 80 1012.1
20260903041114 81 217 0.0 0.0 0.00 0.00 0.00 80 1012.1
20260903040612 81 220 1.0 2.0 0.00 0.00 0.00 80 1011.7
20260903040109 81 223 4.0 6.0 0.00 0.00 0.00 80 1011.8
20260903035604 81 216 1.0 2.0 0.00 0.00 0.00 79 1011.7
20260903035100 81 226 2.0 3.0 0.00 0.00 0.00 79 1011.8
20260903034555 81 260 4.0 6.0 0.00 0.00 0.00 79 1011.8
20260903034050 81 224 5.0 7.0 0.00 0.00 0.00 79 1011.6
20260903033545 81 212 2.0 2.0 0.00 0.00 0.00 79 1011.6
20260903033040 81 218 1.0 1.0 0.00 0.00 0.00 79 1011.4
20260903032535 81 227 4.0 5.0 0.00 0.00 0.00 78 1011.7
20260903032031 82 223 3.0 6.0 0.00 0.00 0.00 78 1011.6
20260903031530 82 210 4.0 6.0 0.00 0.00 0.00 77 1011.7
20260903031026 82 226 0.0 1.0 0.00 0.00 0.00 77 1011.7
20260903030521 81 211 0.0 0.0 0.00 0.00 0.00 78 1011.9
20260903030017 81 212 0.0 0.0 0.00 0.00 0.00 77 1012.1
20260903025512 82 211 2.0 2.0 0.00 0.00 0.00 77 1012.2
20260903025008 81 234 0.0 0.0 0.00 0.00 0.00 77 1012.3
20260903024507 82 201 4.0 6.0 0.00 0.00 0.00 77 1012.2
20260903024001 81 213 3.0 3.0 0.00 0.00 0.00 77 1012.4
20260903023457 82 224 2.0 3.0 0.00 0.00 0.00 77 1012.5
20260903022953 81 223 0.0 0.0 0.00 0.00 0.00 78 1012.6
20260903022452 81 223 2.0 2.0 0.00 0.00 0.00 78 1012.6
20260903021949 81 211 0.0 1.0 0.00 0.00 0.00 78 1012.3
20260903021446 82 226 0.0 0.0 0.00 0.00 0.00 78 1012.4
20260903020941 81 229 0.0 0.0 0.00 0.00 0.00 79 1012.5
20260903020436 81 226 0.0 1.0 0.00 0.00 0.00 79 1012.5
20260903015931 81 256 1.0 3.0 0.00 0.00 0.00 80 1012.6
20260903015426 81 220 1.0 1.0 0.00 0.00 0.00 80 1012.4
20260903014927 81 218 0.0 0.0 0.00 0.00 0.00 81 1012.5
20260903014426 81 221 0.0 0.0 0.00 0.00 0.00 80 1012.8
20260903013921 81 220 0.0 0.0 0.00 0.00 0.00 80 1012.5
20260903013421 81 218 0.0 0.0 0.00 0.00 0.00 80 1012.6
20260903012921 81 210 0.0 0.0 0.00 0.00 0.00 79 1012.5
20260903012420 81 221 0.0 0.0 0.00 0.00 0.00 79 1012.5
20260903011919 81 222 0.0 0.0 0.00 0.00 0.00 80 1012.7
20260903011414 81 222 0.0 0.0 0.00 0.00 0.00 80 1012.5
20260903010909 81 205 0.0 0.0 0.00 0.00 0.00 80 1012.5
20260903010405 81 192 0.0 0.0 0.00 0.00 0.00 80 1012.6
20260903005902 82 211 0.0 0.0 0.00 0.00 0.00 80 1012.5
20260903005358 82 210 0.0 0.0 0.00 0.00 0.00 79 1012.5
20260903004854 82 215 0.0 0.0 0.00 0.00 0.00 79 1012.3
20260903004349 82 229 0.0 0.0 0.00 0.00 0.00 79 1012.3
20260903003845 82 229 0.0 0.0 0.00 0.00 0.00 78 1012.3
20260903003345 83 229 0.0 0.0 0.00 0.00 0.00 77 1012.3
20260903002844 83 230 0.0 0.0 0.00 0.00 0.00 76 1012.2
20260903002339 84 230 0.0 0.0 0.00 0.00 0.00 75 1012.4
20260903001834 84 222 0.0 0.0 0.00 0.00 0.00 75 1012.0
20260903001330 84 234 2.0 2.0 0.00 0.00 0.00 74 1012.1
20260903000829 84 226 0.0 0.0 0.00 0.00 0.00 74 1012.2
20260903000325 85 217 0.0 0.0 0.00 0.00 0.00 73 1012.1
20260902235822 85 232 0.0 0.0 0.00 0.00 0.00 72 1012.3
20260902235317 86 221 1.0 1.0 0.00 0.00 0.00 71 1012.3
20260902234812 86 221 1.0 2.0 0.00 0.00 0.00 71 1012.1
20260902234311 86 231 0.0 0.0 0.00 0.00 0.00 70 1011.9
20260902233810 86 220 1.0 1.0 0.00 0.00 0.00 70 1012.1
20260902233305 86 229 1.0 1.0 0.00 0.00 0.00 69 1012.2
20260902232804 87 215 2.0 2.0 0.00 0.00 0.00 69 1012.1
20260902232306 87 234 4.0 6.0 0.00 0.00 0.00 68 1012.3
20260902231803 87 217 4.0 7.0 0.00 0.00 0.00 67 1012.1
20260902231258 87 233 1.0 2.0 0.00 0.00 0.00 66 1012.1
20260902230753 87 245 3.0 3.0 0.00 0.00 0.00 66 1012.3
20260902230252 87 242 1.0 1.0 0.00 0.00 0.00 66 1012.1
20260902225747 87 236 1.0 1.0 0.00 0.00 0.00 65 1012.1
20260902225242 88 223 0.0 0.0 0.00 0.00 0.00 65 1012.2
20260902224740 88 224 1.0 1.0 0.00 0.00 0.00 64 1012.5
20260902224236 89 240 3.0 3.0 0.00 0.00 0.00 62 1012.3
20260902223732 89 219 2.0 2.0 0.00 0.00 0.00 62 1012.3
20260902223231 89 242 3.0 5.0 0.00 0.00 0.00 62 1012.2
20260902222730 90 237 2.0 2.0 0.00 0.00 0.00 63 1012.1
20260902222225 90 217 1.0 1.0 0.00 0.00 0.00 64 1012.1
20260902221720 90 237 1.0 1.0 0.00 0.00 0.00 63 1012.0
20260902221218 90 227 3.0 5.0 0.00 0.00 0.00 62 1012.2
20260902220709 89 224 1.0 1.0 0.00 0.00 0.00 63 1012.0
20260902220209 89 236 2.0 2.0 0.00 0.00 0.00 64 1012.0
20260902215704 89 235 1.0 2.0 0.00 0.00 0.00 63 1012.1
20260902215200 91 212 5.0 8.0 0.00 0.00 0.00 61 1011.9
20260902214700 92 218 3.0 3.0 0.00 0.00 0.00 61 1012.0
20260902214159 91 235 0.0 0.0 0.00 0.00 0.00 62 1012.2
20260902213654 90 227 3.0 3.0 0.00 0.00 0.00 63 1012.3
20260902213149 91 243 2.0 3.0 0.00 0.00 0.00 61 1012.0
20260902212644 91 236 2.0 2.0 0.00 0.00 0.00 60 1012.2
20260902212140 91 239 2.0 2.0 0.00 0.00 0.00 61 1012.2
20260902211637 92 218 0.0 1.0 0.00 0.00 0.00 59 1012.4
20260902211137 90 264 3.0 5.0 0.00 0.00 0.00 61 1012.3
20260902210636 92 249 0.0 0.0 0.00 0.00 0.00 61 1012.4
20260902210131 92 230 2.0 2.0 0.00 0.00 0.00 60 1012.3
20260902205630 91 245 1.0 1.0 0.00 0.00 0.00 60 1012.6
20260902205125 91 245 2.0 2.0 0.00 0.00 0.00 62 1012.5
20260902204620 91 220 1.0 2.0 0.00 0.00 0.00 62 1012.5
20260902204115 90 224 1.0 2.0 0.00 0.00 0.00 62 1012.7
20260902203611 91 211 3.0 3.0 0.00 0.00 0.00 62 1012.7
20260902203110 91 217 0.0 0.0 0.00 0.00 0.00 62 1012.8
20260902202606 91 233 1.0 1.0 0.00 0.00 0.00 63 1012.8
20260902202102 92 226 0.0 1.0 0.00 0.00 0.00 61 1012.9
20260902201558 92 231 2.0 3.0 0.00 0.00 0.00 60 1012.8
20260902201056 91 228 0.0 0.0 0.00 0.00 0.00 60 1013.0
20260902200552 90 237 1.0 2.0 0.00 0.00 0.00 62 1013.0
20260902200048 91 249 0.0 0.0 0.00 0.00 0.00 62 1012.8
20260902195544 92 266 1.0 2.0 0.00 0.00 0.00 60 1013.0
20260902195042 93 229 1.0 2.0 0.00 0.00 0.00 60 1013.1
20260902194536 92 228 5.0 7.0 0.00 0.00 0.00 59 1012.9
20260902194032 92 234 4.0 5.0 0.00 0.00 0.00 60 1012.8
20260902193528 93 242 3.0 5.0 0.00 0.00 0.00 60 1012.9
20260902193027 92 218 1.0 2.0 0.00 0.00 0.00 63 1013.2
20260902192525 92 283 3.0 6.0 0.00 0.00 0.00 60 1013.2
20260902192024 92 217 5.0 7.0 0.00 0.00 0.00 60 1013.0
20260902191520 91 214 0.0 0.0 0.00 0.00 0.00 62 1013.5
20260902191015 91 250 3.0 3.0 0.00 0.00 0.00 63 1013.2
20260902190510 90 232 1.0 2.0 0.00 0.00 0.00 61 1013.5
20260902190006 91 245 3.0 3.0 0.00 0.00 0.00 63 1013.4
20260902185502 93 277 2.0 2.0 0.00 0.00 0.00 60 1013.4
20260902184956 91 241 0.0 1.0 0.00 0.00 0.00 61 1013.5
20260902184452 93 212 5.0 6.0 0.00 0.00 0.00 60 1013.6
20260902183947 92 226 1.0 2.0 0.00 0.00 0.00 60 1013.7
20260902183443 92 266 3.0 5.0 0.00 0.00 0.00 61 1013.5
20260902182939 92 241 4.0 5.0 0.00 0.00 0.00 61 1013.8
20260902182435 91 214 3.0 3.0 0.00 0.00 0.00 61 1013.9
20260902181932 91 256 3.0 5.0 0.00 0.00 0.00 61 1013.9
20260902181427 91 220 1.0 2.0 0.00 0.00 0.00 61 1014.0
20260902180926 92 209 2.0 2.0 0.00 0.00 0.00 62 1014.1
20260902180422 91 219 1.0 1.0 0.00 0.00 0.00 62 1014.0
20260902175918 90 251 4.0 5.0 0.00 0.00 0.00 63 1014.0
20260902175412 91 218 1.0 2.0 0.00 0.00 0.00 64 1014.0
20260902174908 90 197 0.0 1.0 0.00 0.00 0.00 65 1014.2
20260902174405 90 231 3.0 5.0 0.00 0.00 0.00 64 1014.0
20260902173855 91 236 2.0 2.0 0.00 0.00 0.00 64 1014.3
20260902173354 90 228 2.0 2.0 0.00 0.00 0.00 63 1014.6
20260902172849 90 236 3.0 3.0 0.00 0.00 0.00 63 1014.6
20260902172348 91 209 2.0 2.0 0.00 0.00 0.00 63 1014.7
20260902171843 90 204 3.0 3.0 0.00 0.00 0.00 64 1014.7
20260902171339 89 242 0.0 0.0 0.00 0.00 0.00 65 1014.9
20260902170835 89 220 1.0 1.0 0.00 0.00 0.00 67 1015.1
20260902170330 89 183 0.0 0.0 0.00 0.00 0.00 67 1014.8
20260902165826 89 216 0.0 1.0 0.00 0.00 0.00 66 1014.7
20260902165325 90 239 1.0 1.0 0.00 0.00 0.00 64 1014.9
20260902164820 89 217 1.0 2.0 0.00 0.00 0.00 65 1014.6
20260902164315 89 228 1.0 1.0 0.00 0.00 0.00 66 1014.8
20260902163814 89 214 2.0 2.0 0.00 0.00 0.00 64 1014.9
20260902163309 90 212 3.0 5.0 0.00 0.00 0.00 62 1015.1
20260902162807 90 230 3.0 3.0 0.00 0.00 0.00 65 1014.9
20260902162306 90 45 3.0 3.0 0.00 0.00 0.00 64 1015.1
20260902161802 91 216 0.0 0.0 0.00 0.00 0.00 66 1015.0
20260902161258 90 147 0.0 0.0 0.00 0.00 0.00 64 1015.0
20260902160754 89 210 2.0 2.0 0.00 0.00 0.00 66 1015.2
20260902160249 89 260 2.0 3.0 0.00 0.00 0.00 66 1015.2
20260902155747 89 110 0.0 0.0 0.00 0.00 0.00 66 1015.1
20260902155246 88 214 2.0 2.0 0.00 0.00 0.00 68 1015.4
20260902154741 88 264 2.0 2.0 0.00 0.00 0.00 70 1015.2
20260902154236 89 203 3.0 3.0 0.00 0.00 0.00 67 1015.3
20260902153730 88 189 0.0 0.0 0.00 0.00 0.00 70 1015.3
20260902153230 87 216 0.0 0.0 0.00 0.00 0.00 71 1015.2
20260902152726 87 234 0.0 0.0 0.00 0.00 0.00 71 1015.3
20260902152221 86 248 0.0 1.0 0.00 0.00 0.00 73 1015.4
20260902151717 86 239 3.0 3.0 0.00 0.00 0.00 74 1015.3
20260902151212 85 223 0.0 0.0 0.00 0.00 0.00 75 1015.0
20260902150707 86 220 1.0 2.0 0.00 0.00 0.00 75 1015.1
20260902150203 85 244 1.0 2.0 0.00 0.00 0.00 76 1015.5
20260902145702 85 228 2.0 2.0 0.00 0.00 0.00 76 1015.2
20260902145201 85 230 4.0 5.0 0.00 0.00 0.00 75 1015.2
20260902144658 85 223 0.0 0.0 0.00 0.00 0.00 75 1015.3
20260902144153 85 220 0.0 1.0 0.00 0.00 0.00 75 1015.3
20260902143653 84 219 0.0 0.0 0.00 0.00 0.00 78 1015.2
20260902143149 84 203 1.0 1.0 0.00 0.00 0.00 76 1015.1
20260902142645 85 199 3.0 3.0 0.00 0.00 0.00 76 1015.3
20260902142140 84 238 0.0 0.0 0.00 0.00 0.00 79 1015.2
20260902141639 84 228 1.0 1.0 0.00 0.00 0.00 79 1014.8
20260902141135 83 217 1.0 1.0 0.00 0.00 0.00 79 1015.1
20260902140630 83 200 1.0 1.0 0.00 0.00 0.00 80 1015.0
20260902140125 83 216 0.0 0.0 0.00 0.00 0.00 80 1015.1